ITY466 VVNB-VHHX

Flight info

Callsign ITY466
Flight time 1h 30m
Altitude 41100
Route NAKHA3A NAKHA R474 GYA A599 POU
Aircraft A359/H-SDE2E3GHIJ3J4J5LM1ORWXY/LB1D1

Departure

Time 2026-04-27 19:50
Airport Noi Bai International Airport (VVNB)

Arrival

Time 2026-04-27 21:20
Airport Hong Kong International Airport Kai Tak (VHHX)
Time Latitude Longitude Altitude Speed Heading
2026-04-27 19:49 21.37192 106.12010 13708 ft 391 kts 26°
2026-04-27 19:50 21.39550 106.13474 14298 ft 396 kts 26°
2026-04-27 19:50 21.41956 106.14972 14899 ft 400 kts 26°
2026-04-27 19:50 21.44349 106.16466 15471 ft 403 kts 26°
2026-04-27 19:50 21.46797 106.17996 16058 ft 407 kts 26°
2026-04-27 19:51 21.49238 106.19523 16637 ft 411 kts 26°
2026-04-27 19:51 21.51707 106.21069 17221 ft 414 kts 26°
2026-04-27 19:51 21.54225 106.22645 17802 ft 418 kts 27°
2026-04-27 19:51 21.56744 106.24222 18340 ft 422 kts 27°
2026-04-27 19:52 21.58436 106.25283 18675 ft 424 kts 27°
2026-04-27 19:52 21.60981 106.26880 19195 ft 427 kts 27°
2026-04-27 19:52 21.64420 106.29034 19866 ft 432 kts 27°
2026-04-27 19:52 21.66158 106.30124 20215 ft 434 kts 27°
2026-04-27 19:53 21.71417 106.33428 21293 ft 440 kts 27°
2026-04-27 19:53 21.74060 106.35094 21827 ft 443 kts 27°
2026-04-27 19:53 21.76712 106.36759 22355 ft 447 kts 27°
2026-04-27 19:54 21.79424 106.38463 22868 ft 450 kts 27°
2026-04-27 19:54 21.82149 106.40175 23371 ft 454 kts 27°
2026-04-27 19:54 21.84866 106.41886 23782 ft 457 kts 27°
2026-04-27 19:54 21.87625 106.43624 24212 ft 460 kts 27°
2026-04-27 19:55 21.90394 106.45366 24657 ft 463 kts 27°
2026-04-27 19:55 21.93158 106.47108 25121 ft 466 kts 27°
2026-04-27 19:55 21.95975 106.48925 25615 ft 470 kts 30°
2026-04-27 19:55 21.98642 106.50971 26104 ft 475 kts 34°
2026-04-27 19:56 22.01235 106.53150 26608 ft 479 kts 36°
2026-04-27 19:56 22.03837 106.55424 27088 ft 482 kts 37°
2026-04-27 19:56 22.06456 106.57748 27568 ft 486 kts 37°
2026-04-27 19:56 22.09048 106.60052 28039 ft 489 kts 37°
2026-04-27 19:57 22.11676 106.62377 28517 ft 493 kts 37°
2026-04-27 19:57 22.14362 106.64741 28976 ft 496 kts 37°
2026-04-27 19:57 22.17022 106.67120 29425 ft 501 kts 39°
2026-04-27 19:57 22.19555 106.69679 29857 ft 504 kts 41°
2026-04-27 19:58 22.22105 106.72340 30242 ft 508 kts 42°
2026-04-27 19:58 22.24613 106.74998 30603 ft 511 kts 43°
2026-04-27 19:58 22.27160 106.77716 30947 ft 514 kts 43°
2026-04-27 19:58 22.29691 106.80425 31295 ft 517 kts 43°
2026-04-27 19:59 22.32182 106.83265 31614 ft 521 kts 48°
2026-04-27 19:59 22.34295 106.86434 31924 ft 526 kts 58°
2026-04-27 19:59 22.35926 106.90003 32219 ft 530 kts 69°
2026-04-27 19:59 22.36974 106.93805 32542 ft 532 kts 76°
2026-04-27 20:00 22.37780 106.97746 32858 ft 534 kts 78°
2026-04-27 20:00 22.38484 107.01652 33308 ft 533 kts 79°
2026-04-27 20:00 22.39159 107.05599 33752 ft 532 kts 79°
2026-04-27 20:00 22.39823 107.09507 34148 ft 532 kts 79°
2026-04-27 20:01 22.40502 107.13454 34512 ft 531 kts 79°
2026-04-27 20:01 22.41185 107.17357 34863 ft 531 kts 79°
2026-04-27 20:01 22.41881 107.21289 35213 ft 530 kts 79°
2026-04-27 20:01 22.42573 107.25163 35570 ft 530 kts 79°
2026-04-27 20:02 22.43285 107.29112 35931 ft 529 kts 79°
2026-04-27 20:02 22.43987 107.32985 36273 ft 529 kts 79°
2026-04-27 20:02 22.44698 107.36906 36622 ft 528 kts 79°
2026-04-27 20:02 22.45399 107.40775 36961 ft 528 kts 79°
2026-04-27 20:03 22.46099 107.44654 37306 ft 527 kts 79°
2026-04-27 20:03 22.46803 107.48559 37651 ft 526 kts 79°
2026-04-27 20:03 22.47497 107.52417 37961 ft 526 kts 79°
2026-04-27 20:03 22.48195 107.56309 38281 ft 525 kts 79°
2026-04-27 20:04 22.48883 107.60149 38578 ft 524 kts 79°
2026-04-27 20:04 22.49584 107.64066 38840 ft 524 kts 79°
2026-04-27 20:04 22.50270 107.67907 39080 ft 523 kts 79°
2026-04-27 20:04 22.50955 107.71749 39320 ft 523 kts 79°
2026-04-27 20:05 22.51645 107.75627 39566 ft 522 kts 79°
2026-04-27 20:05 22.52324 107.79443 39789 ft 521 kts 79°
2026-04-27 20:05 22.53012 107.83313 40010 ft 521 kts 79°
2026-04-27 20:05 22.53691 107.87143 40236 ft 521 kts 79°
2026-04-27 20:06 22.54376 107.91010 40438 ft 520 kts 79°
2026-04-27 20:06 22.55051 107.94825 40649 ft 520 kts 79°
2026-04-27 20:06 22.55726 107.98646 40802 ft 521 kts 79°
2026-04-27 20:06 22.56410 108.02521 40831 ft 521 kts 79°
2026-04-27 20:07 22.57764 108.10218 40831 ft 520 kts 79°
2026-04-27 20:07 22.59080 108.17872 40829 ft 520 kts 81°
2026-04-27 20:08 22.59994 108.25624 40830 ft 520 kts 84°
2026-04-27 20:08 22.60770 108.33406 40829 ft 520 kts 84°
2026-04-27 20:09 22.61599 108.41179 40828 ft 521 kts 83°
2026-04-27 20:09 22.62473 108.48966 40825 ft 521 kts 83°
2026-04-27 20:10 22.63357 108.56763 40829 ft 521 kts 83°
2026-04-27 20:10 22.64237 108.64559 40829 ft 521 kts 83°
2026-04-27 20:11 22.65106 108.72321 40833 ft 521 kts 83°
2026-04-27 20:11 22.65975 108.80131 40832 ft 521 kts 83°
2026-04-27 20:12 22.66838 108.87913 40834 ft 522 kts 83°
2026-04-27 20:12 22.67697 108.95696 40838 ft 522 kts 83°
2026-04-27 20:13 22.68550 109.03462 40841 ft 522 kts 83°
2026-04-27 20:13 22.69408 109.11304 40839 ft 522 kts 84°
2026-04-27 20:14 22.70269 109.19121 40841 ft 522 kts 83°
2026-04-27 20:14 22.71149 109.26877 40844 ft 523 kts 83°
2026-04-27 20:15 22.72047 109.34703 40843 ft 523 kts 83°
2026-04-27 20:15 22.72943 109.42480 40842 ft 523 kts 83°
2026-04-27 20:16 22.73845 109.50288 40844 ft 523 kts 83°
2026-04-27 20:16 22.74745 109.58152 40845 ft 523 kts 83°
2026-04-27 20:17 22.75633 109.65965 40846 ft 523 kts 83°
2026-04-27 20:17 22.76519 109.73776 40848 ft 523 kts 83°
2026-04-27 20:18 22.77404 109.81610 40848 ft 524 kts 84°
2026-04-27 20:18 22.78285 109.89426 40851 ft 524 kts 84°
2026-04-27 20:19 22.79160 109.97250 40850 ft 524 kts 84°
2026-04-27 20:19 22.80032 110.05088 40856 ft 525 kts 84°
2026-04-27 20:20 22.80905 110.12961 40859 ft 525 kts 84°
2026-04-27 20:20 22.81771 110.20802 40858 ft 525 kts 84°
2026-04-27 20:21 22.82635 110.28657 40864 ft 525 kts 84°
2026-04-27 20:21 22.83494 110.36501 40864 ft 525 kts 84°
2026-04-27 20:22 22.84349 110.44349 40864 ft 525 kts 84°
2026-04-27 20:22 22.85202 110.52223 40868 ft 525 kts 84°
2026-04-27 20:23 22.86062 110.60036 40870 ft 526 kts 83°
2026-04-27 20:23 22.86994 110.67896 40869 ft 526 kts 83°
2026-04-27 20:24 22.87930 110.75744 40874 ft 526 kts 83°
2026-04-27 20:24 22.88855 110.83624 40874 ft 526 kts 83°
2026-04-27 20:25 22.89770 110.91502 40876 ft 527 kts 83°
2026-04-27 20:25 22.90679 110.99368 40882 ft 527 kts 83°
2026-04-27 20:26 22.91582 111.07236 40884 ft 527 kts 83°
2026-04-27 20:26 22.92482 111.15111 40884 ft 527 kts 83°
2026-04-27 20:27 22.93380 111.22985 40880 ft 527 kts 83°
2026-04-27 20:27 22.94282 111.30936 40881 ft 528 kts 83°
2026-04-27 20:28 22.95171 111.38811 40881 ft 528 kts 84°
2026-04-27 20:28 22.95908 111.45369 40882 ft 528 kts 84°
2026-04-27 20:29 22.96946 111.54623 40882 ft 529 kts 84°
2026-04-27 20:29 22.97831 111.62556 40882 ft 529 kts 84°
2026-04-27 20:30 22.98691 111.70439 40884 ft 529 kts 84°
2026-04-27 20:30 22.99549 111.78391 40890 ft 530 kts 84°
2026-04-27 20:31 23.00405 111.86332 40886 ft 529 kts 84°
2026-04-27 20:31 23.01259 111.94278 40889 ft 530 kts 84°
2026-04-27 20:32 23.02107 112.02185 40894 ft 530 kts 84°
2026-04-27 20:32 23.02953 112.10114 40892 ft 530 kts 84°
2026-04-27 20:33 23.03800 112.18098 40891 ft 530 kts 84°
2026-04-27 20:33 23.04635 112.26014 40896 ft 531 kts 84°
2026-04-27 20:34 23.05469 112.33954 40896 ft 531 kts 84°
2026-04-27 20:34 23.06303 112.41926 40899 ft 531 kts 84°
2026-04-27 20:35 23.06828 112.49926 40900 ft 530 kts 94°
2026-04-27 20:35 23.06373 112.57860 40898 ft 530 kts 95°
2026-04-27 20:36 23.05845 112.65838 40897 ft 530 kts 95°
2026-04-27 20:36 23.05306 112.73832 40898 ft 531 kts 95°
2026-04-27 20:37 23.04762 112.81804 40901 ft 531 kts 95°
2026-04-27 20:37 23.04211 112.89803 40901 ft 531 kts 95°
2026-04-27 20:38 23.03658 112.97790 40901 ft 531 kts 95°
2026-04-27 20:38 23.03099 113.05790 40898 ft 531 kts 95°
2026-04-27 20:39 23.02289 113.13754 40900 ft 530 kts 105°
2026-04-27 20:39 23.01170 113.17542 40902 ft 525 kts 116°
2026-04-27 20:39 22.99451 113.21019 40900 ft 520 kts 127°
2026-04-27 20:40 22.97218 113.24068 40901 ft 514 kts 138°
2026-04-27 20:40 22.94661 113.26780 40900 ft 512 kts 141°
2026-04-27 20:40 22.89449 113.32070 40899 ft 513 kts 141°
2026-04-27 20:41 22.84243 113.37378 40902 ft 514 kts 141°
2026-04-27 20:41 22.79078 113.42654 40901 ft 514 kts 141°
2026-04-27 20:42 22.73877 113.47966 40905 ft 513 kts 141°
2026-04-27 20:42 22.68681 113.53268 40906 ft 513 kts 141°
2026-04-27 20:43 22.63477 113.58572 40909 ft 513 kts 141°
2026-04-27 20:43 22.58276 113.63869 40907 ft 512 kts 141°
2026-04-27 20:44 22.53110 113.69123 40909 ft 512 kts 141°
2026-04-27 20:44 22.47906 113.74411 40910 ft 512 kts 141°
2026-04-27 20:45 22.42711 113.79685 40866 ft 512 kts 141°
2026-04-27 20:45 22.40022 113.82191 40626 ft 507 kts 148°
2026-04-27 20:45 22.37039 113.84163 40377 ft 500 kts 159°
2026-04-27 20:46 22.33812 113.85470 40135 ft 492 kts 171°
2026-04-27 20:46 22.30470 113.86094 39897 ft 484 kts 181°
2026-04-27 20:46 22.27138 113.86051 39657 ft 477 kts 191°
2026-04-27 20:46 22.23892 113.85371 39383 ft 470 kts 201°
2026-04-27 20:47 22.20868 113.84109 38937 ft 464 kts 211°
2026-04-27 20:47 22.18157 113.82332 38460 ft 459 kts 220°
2026-04-27 20:47 22.15763 113.80069 37993 ft 456 kts 230°
2026-04-27 20:47 22.13764 113.77422 37585 ft 455 kts 238°
2026-04-27 20:48 22.11887 113.74690 37161 ft 458 kts 233°
2026-04-27 20:48 22.10478 113.73003 36891 ft 461 kts 227°
2026-04-27 20:48 22.07049 113.70143 36361 ft 469 kts 214°
2026-04-27 20:48 22.04167 113.68419 35966 ft 472 kts 212°
2026-04-27 20:49 22.02233 113.67318 35711 ft 473 kts 211°
2026-04-27 20:49 21.98339 113.65107 35208 ft 475 kts 211°
2026-04-27 20:49 21.95426 113.63448 34833 ft 476 kts 211°
2026-04-27 20:49 21.92518 113.61789 34468 ft 478 kts 211°
2026-04-27 20:50 21.89555 113.60097 34104 ft 479 kts 211°
2026-04-27 20:50 21.86622 113.58421 33725 ft 481 kts 211°
2026-04-27 20:50 21.83642 113.56718 33312 ft 483 kts 211°
2026-04-27 20:50 21.80667 113.55019 32909 ft 485 kts 211°
2026-04-27 20:51 21.77719 113.53335 32517 ft 487 kts 211°
2026-04-27 20:51 21.74697 113.51610 32113 ft 489 kts 211°
2026-04-27 20:51 21.71708 113.49905 31735 ft 491 kts 211°
2026-04-27 20:51 21.68698 113.48188 31350 ft 493 kts 211°
2026-04-27 20:52 21.65635 113.46443 30974 ft 495 kts 211°
2026-04-27 20:52 21.62609 113.44719 30600 ft 496 kts 211°
2026-04-27 20:52 21.59573 113.42990 30225 ft 498 kts 211°
2026-04-27 20:52 21.56482 113.41231 29859 ft 500 kts 211°
2026-04-27 20:53 21.53423 113.39491 29425 ft 501 kts 211°
2026-04-27 20:53 21.50324 113.37730 29008 ft 499 kts 211°
2026-04-27 20:53 21.47295 113.36009 28596 ft 496 kts 211°
2026-04-27 20:53 21.44227 113.34268 28178 ft 493 kts 211°
2026-04-27 20:54 21.39219 113.31425 27518 ft 488 kts 211°
2026-04-27 20:54 21.36244 113.29742 27124 ft 485 kts 210°
2026-04-27 20:54 21.33117 113.28348 26731 ft 487 kts 199°
2026-04-27 20:55 21.28624 113.27789 26085 ft 492 kts 179°
2026-04-27 20:55 21.26367 113.28142 25745 ft 494 kts 169°
2026-04-27 20:55 21.23132 113.29457 25236 ft 497 kts 154°
2026-04-27 20:55 21.20348 113.31595 24739 ft 499 kts 139°
2026-04-27 20:56 21.17571 113.35512 24094 ft 500 kts 118°
2026-04-27 20:56 21.16683 113.37810 23778 ft 499 kts 108°
2026-04-27 20:56 21.16073 113.41466 23265 ft 497 kts 92°
2026-04-27 20:56 21.16350 113.45101 22700 ft 493 kts 77°
2026-04-27 20:57 21.17483 113.48527 22142 ft 486 kts 61°
2026-04-27 20:57 21.19395 113.51487 21597 ft 478 kts 45°
2026-04-27 20:57 21.21826 113.53894 21050 ft 471 kts 38°
2026-04-27 20:57 21.24286 113.56139 20474 ft 468 kts 38°
2026-04-27 20:58 21.26752 113.58464 19528 ft 471 kts 39°
2026-04-27 20:58 21.29182 113.60676 18668 ft 451 kts 33°
2026-04-27 20:58 21.31879 113.62282 17312 ft 434 kts 20°
2026-04-27 20:58 21.34681 113.63478 16376 ft 432 kts 19°
2026-04-27 20:59 21.37400 113.64633 15661 ft 413 kts 19°
2026-04-27 20:59 21.39982 113.65752 15002 ft 387 kts 19°
2026-04-27 20:59 21.42441 113.66824 14058 ft 375 kts 20°
2026-04-27 20:59 21.44706 113.68070 13215 ft 364 kts 33°
2026-04-27 21:00 21.46539 113.69853 12664 ft 345 kts 49°
2026-04-27 21:00 21.47952 113.71770 12507 ft 316 kts 52°
2026-04-27 21:00 21.49297 113.73650 12445 ft 318 kts 51°
2026-04-27 21:00 21.50635 113.75518 12343 ft 317 kts 51°
2026-04-27 21:01 21.51988 113.77403 12213 ft 316 kts 52°
2026-04-27 21:01 21.53316 113.79256 12071 ft 315 kts 51°
2026-04-27 21:01 21.54662 113.81134 11939 ft 315 kts 52°
2026-04-27 21:01 21.55988 113.82983 11809 ft 314 kts 52°
2026-04-27 21:02 21.57324 113.84848 11671 ft 314 kts 52°
2026-04-27 21:02 21.58657 113.86710 11549 ft 313 kts 52°
2026-04-27 21:02 21.59968 113.88541 11402 ft 312 kts 52°
2026-04-27 21:02 21.61289 113.90386 11278 ft 311 kts 52°
2026-04-27 21:03 21.62616 113.92241 11147 ft 310 kts 52°
2026-04-27 21:03 21.63915 113.94057 10999 ft 310 kts 52°
2026-04-27 21:03 21.65229 113.95893 10884 ft 309 kts 52°
2026-04-27 21:03 21.66543 113.97732 10752 ft 308 kts 52°
2026-04-27 21:04 21.67841 113.99548 10611 ft 308 kts 52°
2026-04-27 21:04 21.69148 114.01379 10498 ft 307 kts 52°
2026-04-27 21:04 21.70450 114.03201 10348 ft 306 kts 52°
2026-04-27 21:04 21.71729 114.04993 10232 ft 305 kts 52°
2026-04-27 21:05 21.73033 114.06820 10098 ft 305 kts 52°
2026-04-27 21:05 21.74308 114.08607 9972 ft 304 kts 52°
2026-04-27 21:05 21.75604 114.10425 9880 ft 304 kts 52°
2026-04-27 21:05 21.76875 114.12207 9801 ft 303 kts 52°
2026-04-27 21:06 21.78172 114.14027 9677 ft 302 kts 52°
2026-04-27 21:06 21.79433 114.15797 9565 ft 302 kts 52°
2026-04-27 21:06 21.80714 114.17596 9419 ft 300 kts 53°
2026-04-27 21:06 21.81971 114.19361 9302 ft 300 kts 52°
2026-04-27 21:07 21.83240 114.21144 9170 ft 299 kts 53°
2026-04-27 21:07 21.84507 114.22924 9035 ft 298 kts 53°
2026-04-27 21:07 21.85755 114.24678 8912 ft 297 kts 53°
2026-04-27 21:07 21.87018 114.26455 8795 ft 297 kts 53°
2026-04-27 21:08 21.88258 114.28200 8652 ft 287 kts 53°
2026-04-27 21:08 21.89435 114.29855 8536 ft 278 kts 53°
2026-04-27 21:08 21.90609 114.31509 8417 ft 277 kts 53°
2026-04-27 21:08 21.91784 114.33163 8297 ft 277 kts 53°
2026-04-27 21:09 21.92944 114.34797 8189 ft 276 kts 53°
2026-04-27 21:09 21.94115 114.36447 8062 ft 276 kts 53°
2026-04-27 21:09 21.95271 114.38077 7942 ft 274 kts 53°
2026-04-27 21:09 21.96430 114.39711 7835 ft 274 kts 53°
2026-04-27 21:10 21.97574 114.41325 7709 ft 273 kts 53°
2026-04-27 21:10 21.98728 114.42952 7595 ft 272 kts 53°
2026-04-27 21:10 21.99880 114.44578 7491 ft 272 kts 53°
2026-04-27 21:10 22.01031 114.46203 7362 ft 271 kts 53°
2026-04-27 21:11 22.02161 114.47797 7253 ft 271 kts 53°
2026-04-27 21:11 22.03307 114.49416 7126 ft 270 kts 53°
2026-04-27 21:11 22.04480 114.50994 7007 ft 270 kts 48°
2026-04-27 21:11 22.05982 114.52191 6767 ft 269 kts 24°
2026-04-27 21:12 22.07793 114.52579 6523 ft 267 kts 357°
2026-04-27 21:12 22.09572 114.52100 6286 ft 264 kts 332°
2026-04-27 21:12 22.10971 114.50894 6111 ft 254 kts 307°
2026-04-27 21:12 22.11804 114.49277 5952 ft 241 kts 289°
2026-04-27 21:13 22.12356 114.47607 5837 ft 232 kts 286°
2026-04-27 21:13 22.12861 114.45991 5746 ft 222 kts 286°
2026-04-27 21:13 22.13340 114.44481 5659 ft 209 kts 286°
2026-04-27 21:13 22.13803 114.43041 5533 ft 199 kts 286°
2026-04-27 21:14 22.14249 114.41665 5375 ft 190 kts 286°
2026-04-27 21:14 22.14683 114.40329 5137 ft 188 kts 286°
2026-04-27 21:14 22.15169 114.39014 4783 ft 192 kts 295°
2026-04-27 21:14 22.15945 114.37811 4525 ft 199 kts 309°
2026-04-27 21:15 22.16892 114.36722 4255 ft 199 kts 313°
2026-04-27 21:15 22.17859 114.35649 3913 ft 201 kts 313°
2026-04-27 21:15 22.18839 114.34556 3587 ft 203 kts 313°
2026-04-27 21:15 22.19810 114.33471 3293 ft 203 kts 313°
2026-04-27 21:16 22.20775 114.32394 3120 ft 195 kts 313°
2026-04-27 21:16 22.21693 114.31370 3047 ft 182 kts 313°
2026-04-27 21:16 22.22542 114.30424 2986 ft 170 kts 313°
2026-04-27 21:16 22.23345 114.29526 2859 ft 164 kts 314°
2026-04-27 21:17 22.24143 114.28624 2560 ft 170 kts 314°
2026-04-27 21:17 22.24965 114.27671 2250 ft 175 kts 313°
2026-04-27 21:17 22.25771 114.26681 1910 ft 175 kts 311°
2026-04-27 21:17 22.26567 114.25698 1577 ft 173 kts 313°
2026-04-27 21:18 22.27403 114.24726 1046 ft 181 kts 314°
2026-04-27 21:18 22.28296 114.23787 744 ft 176 kts 317°
2026-04-27 21:18 22.29158 114.22918 482 ft 169 kts 319°
2026-04-27 21:18 22.29988 114.22013 221 ft 162 kts 313°
2026-04-27 21:19 22.30750 114.21198 108 ft 149 kts 318°
2026-04-27 21:19 22.31449 114.20437 43 ft 141 kts 315°
2026-04-27 21:19 22.32008 114.19828 42 ft 71 kts 314°
2026-04-27 21:20 22.32348 114.19454 43 ft 9 kts 323°
2026-04-27 21:20 22.32412 114.19435 43 ft 11 kts 353°
2026-04-27 21:20 22.32482 114.19429 43 ft 0 kts 358°
2026-04-27 21:20 22.32481 114.19429 43 ft 0 kts 358°
2026-04-27 21:21 22.32482 114.19429 43 ft 0 kts 358°
2026-04-27 21:21 22.32499 114.19428 43 ft 4 kts 356°
2026-04-27 21:21 22.32540 114.19417 43 ft 7 kts 333°
2026-04-27 21:22 22.32576 114.19393 43 ft 2 kts
2026-04-27 21:22 22.32585 114.19401 43 ft 2 kts 31°
2026-04-27 21:22 22.32608 114.19419 44 ft 6 kts 39°
2026-04-27 21:22 22.32646 114.19457 43 ft 9 kts 43°
2026-04-27 21:23 22.32673 114.19464 43 ft 1 kts 325°
2026-04-27 21:23 22.32674 114.19461 43 ft 0 kts 305°
2026-04-27 21:23 22.32674 114.19456 43 ft 0 kts 281°
2026-04-27 21:23 22.32677 114.19434 44 ft 0 kts 287°
2026-04-27 21:24 22.32679 114.19432 44 ft 1 kts 297°
2026-04-27 21:24 22.32699 114.19408 43 ft 6 kts 312°
2026-04-27 21:24 22.32712 114.19393 43 ft 0 kts 312°